Weather History for Apalachicola, FL

Change the Weather History Date:

Saturday, April 28, 2012

  Actual Average Record
Temperature  
Mean Temperature 68 °F -  
Max Temperature 79 °F 78 °F 90 °F (1948)
Min Temperature 56 °F 60 °F 46 °F (1992)
Cooling Degree Days 3    
Month to date cooling degree days 118  
Year to date cooling degree days 262  
Growing Degree Days 17 (Base 50)    
Moisture  
Dew Point 60 °F    
Average Humidity 76    
Maximum Humidity 93    
Minimum Humidity 58    
Precipitation  
Precipitation 0.00 in - - ()
Month to date precipitation 1.31  
Year to date precipitation 9.13  
Sea Level Pressure  
Sea Level Pressure 30.08 in    
Wind  
Wind Speed 3 mph (SSE)    
Max Wind Speed 12 mph    
Max Gust Speed 15 mph    
Visibility 10 miles    
Events      
Averages and records for this station are not official NWS values.
T = Trace of Precipitation, MM = Missing Value Source: NWS Daily Summary

Daily Weather History Graph

Daily Weather History Graph

Search for Another Location

Airport:

Trip Planner

Search our weather history database for the weather conditions in past years. The results will help you decide how hot, cold, wet, or windy it might be!

Date:

Astronomy

Apr. 28, 2012 Rise Set
Actual Time 6:59 AM EDT 8:15 PM EDT
Civil Twilight 6:34 AM EDT 8:40 PM EDT
Nautical Twilight 6:04 AM EDT 9:10 PM EDT
Astronomical Twilight 5:34 AM EDT 9:41 PM EDT
Moon 12:40 PM EDT (4/28) 1:36 AM EDT (4/28)
Length of Visible Light 14h 05m
Length of Day
13h 15m
Waxing Crescent, 42% of the Moon is Illuminated
Apr 28
Waxing Crescent
Apr 29
First Quarter
May 5
Full
May 12
Last Quarter
May 20
New

Hourly Weather History & Observations

Time (EDT) Temp. Dew Point Humidity Pressure Visibility Wind Dir Wind Speed Gust Speed Precip Events Conditions
12:53 AM 64.0 °F 60.1 °F 87% 30.09 in 10.0 mi Calm Calm - N/A   Clear
1:53 AM 63.0 °F 60.1 °F 90% 30.07 in 10.0 mi Calm Calm - N/A   Partly Cloudy
2:53 AM 62.1 °F 57.9 °F 86% 30.05 in 10.0 mi Calm Calm - N/A   Clear
3:53 AM 59.0 °F 55.9 °F 90% 30.05 in 10.0 mi Calm Calm - N/A   Clear
4:10 AM 60.8 °F 55.4 °F 82% 30.05 in 10.0 mi Calm Calm - N/A   Partly Cloudy
4:53 AM 57.9 °F 54.0 °F 87% 30.05 in 10.0 mi Calm Calm - N/A   Partly Cloudy
5:53 AM 57.0 °F 54.0 °F 89% 30.05 in 10.0 mi Calm Calm - N/A   Clear
6:03 AM 57.2 °F 55.4 °F 94% 30.05 in 10.0 mi Calm Calm - N/A   Scattered Clouds
6:12 AM 55.4 °F 55.4 °F 100% 30.05 in 10.0 mi Calm Calm - N/A   Mostly Cloudy
6:36 AM 57.2 °F 55.4 °F 94% 30.06 in 10.0 mi Calm Calm - N/A   Overcast
6:53 AM 57.9 °F 55.0 °F 90% 30.07 in 10.0 mi Calm Calm - N/A   Mostly Cloudy
7:12 AM 57.2 °F 53.6 °F 88% 30.07 in 10.0 mi Calm Calm - N/A   Partly Cloudy
7:53 AM 62.1 °F 59.0 °F 90% 30.09 in 10.0 mi Calm Calm - N/A   Partly Cloudy
8:53 AM 70.0 °F 66.0 °F 87% 30.10 in 10.0 mi East 3.5 mph - N/A   Clear
9:53 AM 73.0 °F 64.9 °F 76% 30.12 in 10.0 mi SE 6.9 mph - N/A   Partly Cloudy
10:53 AM 75.9 °F 64.9 °F 69% 30.13 in 10.0 mi ESE 9.2 mph - N/A   Partly Cloudy
11:53 AM 75.9 °F 64.0 °F 67% 30.13 in 10.0 mi SE 6.9 mph - N/A   Partly Cloudy
12:28 PM 77.0 °F 64.4 °F 65% 30.13 in 10.0 mi SSE 8.1 mph - N/A   Mostly Cloudy
12:49 PM 78.8 °F 64.4 °F 61% 30.13 in 10.0 mi South 9.2 mph - N/A   Scattered Clouds
12:53 PM 77.0 °F 64.9 °F 66% 30.12 in 10.0 mi SSE 9.2 mph - N/A   Scattered Clouds
1:53 PM 77.0 °F 63.0 °F 62% 30.11 in 10.0 mi SE 6.9 mph - N/A   Partly Cloudy
2:53 PM 77.0 °F 63.0 °F 62% 30.10 in 10.0 mi SSE 6.9 mph - N/A   Clear
3:31 PM 78.8 °F 62.6 °F 57% 30.08 in 10.0 mi SW 6.9 mph - N/A   Partly Cloudy
3:53 PM 79.0 °F 63.0 °F 58% 30.08 in 10.0 mi Variable 5.8 mph - N/A   Partly Cloudy
4:53 PM 79.0 °F 62.1 °F 56% 30.06 in 10.0 mi SSW 8.1 mph - N/A   Clear
5:53 PM 77.0 °F 63.0 °F 62% 30.07 in 10.0 mi Calm Calm - N/A   Clear
6:53 PM 77.0 °F 63.0 °F 62% 30.06 in 10.0 mi South 4.6 mph - N/A   Clear
7:53 PM 75.0 °F 62.1 °F 64% 30.06 in 10.0 mi Calm Calm - N/A   Clear
8:53 PM 70.0 °F 63.0 °F 78% 30.06 in 10.0 mi Calm Calm - N/A   Clear
9:53 PM 66.9 °F 62.1 °F 84% 30.08 in 10.0 mi Calm Calm - N/A   Clear
10:53 PM 66.9 °F 62.1 °F 84% 30.09 in 10.0 mi Calm Calm - N/A   Clear
11:53 PM 63.0 °F 60.1 °F 90% 30.09 in 10.0 mi Calm Calm - N/A   Clear